Weather History for Cozumel, Mexico

Change the Weather History Date:

Monday, November 18, 2013

  Actual Average Record
Temperature  
Mean Temperature 75 °F -  
Max Temperature 82 °F 82 °F 86 °F (1998)
Min Temperature 68 °F 72 °F 66 °F (2012)
Cooling Degree Days 10    
Growing Degree Days 25 (Base 50)    
Moisture  
Dew Point 72 °F    
Average Humidity 89    
Maximum Humidity 100    
Minimum Humidity 74    
Precipitation  
Precipitation 0.00 in - - ()
Sea Level Pressure  
Sea Level Pressure 29.93 in    
Wind  
Wind Speed 3 mph ()    
Max Wind Speed 9 mph    
Max Gust Speed -    
Visibility 7.1 miles    
Events Rain    
Averages and records for this station are not official NWS values.
T = Trace of Precipitation, MM = Missing Value Source: Averaged Metar Reports

Daily Weather History Graph

Daily Weather History Graph

Search for Another Location

Airport:

Trip Planner

Search our weather history database for the weather conditions in past years. The results will help you decide how hot, cold, wet, or windy it might be!

Date:

Astronomy

Nov. 18, 2013 Rise Set
Actual Time 5:59 AM CST 5:06 PM CST
Civil Twilight 5:35 AM CST 5:29 PM CST
Nautical Twilight 5:08 AM CST 5:56 PM CST
Astronomical Twilight 4:42 AM CST 6:23 PM CST
Moon 6:10 PM CST (11/18) 6:46 AM CST (11/18)
Length of Visible Light 11h 53m
Length of Day
11h 07m
Full, 99% of the Moon is Illuminated
Nov 18
Full
Nov 25
Last Quarter
Dec 2
New
Dec 9
First Quarter
Dec 17
Full

Hourly Weather History & Observations

Time (CST) Temp. Heat Index Dew Point Humidity Pressure Visibility Wind Dir Wind Speed Gust Speed Precip Events Conditions
12:48 AM 69.8 °F - 69.8 °F 100% 29.95 in 7.0 mi Calm Calm - N/A   Clear
1:40 AM 68.0 °F - 68.0 °F 100% 29.93 in 7.0 mi Calm Calm - N/A   Partly Cloudy
2:43 AM 69.8 °F - 69.8 °F 100% 29.95 in 6.0 mi ESE 3.5 mph - N/A Rain Light Rain
3:45 AM 69.8 °F - 69.8 °F 100% 29.93 in 7.0 mi South 3.5 mph - N/A   Scattered Clouds
4:46 AM 69.8 °F - 69.8 °F 100% 29.93 in 7.0 mi SE 3.5 mph - N/A   Scattered Clouds
5:49 AM 68.0 °F - 68.0 °F 100% 29.92 in 7.0 mi Calm Calm - N/A   Partly Cloudy
6:46 AM 68.0 °F - 68.0 °F 100% 29.95 in 8.0 mi Calm Calm - N/A   Partly Cloudy
7:40 AM 73.4 °F - 71.6 °F 94% 29.97 in 7.0 mi ENE 3.5 mph - N/A   Partly Cloudy
8:41 AM 78.8 °F - 75.2 °F 89% 29.99 in 7.0 mi East 8.1 mph - N/A   Scattered Clouds
9:40 AM 82.4 °F 88.2 °F 73.4 °F 74% 29.97 in 7.0 mi East 6.9 mph - N/A   Scattered Clouds
10:41 AM 78.8 °F - 73.4 °F 83% 29.96 in 7.0 mi East 6.9 mph - N/A   Scattered Clouds
11:40 AM 80.6 °F 85.4 °F 73.4 °F 79% 29.91 in 7.0 mi East 6.9 mph - N/A   Scattered Clouds
12:42 PM 82.4 °F 88.2 °F 73.4 °F 74% 29.90 in 7.0 mi NE 9.2 mph - N/A   Partly Cloudy
1:40 PM 82.4 °F 88.2 °F 73.4 °F 74% 29.89 in 7.0 mi ENE 9.2 mph - N/A   Partly Cloudy
2:43 PM 80.6 °F 85.4 °F 73.4 °F 79% 29.91 in 8.0 mi East 9.2 mph - N/A   Scattered Clouds
3:42 PM 80.6 °F 85.4 °F 73.4 °F 79% 29.88 in 8.0 mi East 8.1 mph - N/A   Scattered Clouds
4:43 PM 78.8 °F - 73.4 °F 83% 29.89 in 8.0 mi ENE 6.9 mph - N/A   Mostly Cloudy
5:47 PM 75.2 °F - 71.6 °F 89% 29.88 in 7.0 mi ENE 5.8 mph - N/A   Mostly Cloudy
6:40 PM 73.4 °F - 71.6 °F 94% 29.92 in 7.0 mi ENE 3.5 mph - N/A   Mostly Cloudy
7:41 PM 75.2 °F - 71.6 °F 89% 29.93 in 7.0 mi ENE 6.9 mph - N/A   Mostly Cloudy
8:44 PM 73.4 °F - 71.6 °F 94% 29.97 in 7.0 mi ENE 3.5 mph - N/A   Mostly Cloudy
9:41 PM 73.4 °F - 71.6 °F 94% 29.94 in 7.0 mi ENE 4.6 mph - N/A   Scattered Clouds
10:41 PM 73.4 °F - 71.6 °F 94% 29.94 in 7.0 mi Calm Calm - N/A   Scattered Clouds
11:47 PM 75.2 °F - 69.8 °F 83% 29.90 in 7.0 mi ENE 6.9 mph - N/A   Scattered Clouds